Regional Weather Roundup
Issued by NWS Newport/Morehead, NC

Current Version | Previous Version | Text Only | Print | Product List | Glossary On
Versions: 1 2 3 4 5 6 7 8 9 10 11 12 13 14 15 16 17 18 19 20 21 22 23 24 25 26 27 28 29 30 31 32 33 34 35 36 37 38 39 40 41 42 43 44 45 46 47 48 49 50
000
ASUS42 KMHX 291810
RWRMHX
WEATHER ROUNDUP FOR EASTERN NORTH CAROLINA
NATIONAL WEATHER SERVICE NEWPORT/MOREHEAD CITY NC
200 PM EDT WED OCT 29 2014

NOTE: "FAIR" INDICATES FEW OR NO CLOUDS BELOW 12,000 FEET
WITH NO SIGNIFICANT WEATHER AND/OR OBSTRUCTIONS TO VISIBILITY

NCZ015>017-031-032-045>047-102-103-291900-
NORTH COAST

CITY           SKY/WX    TMP DP  RH WIND       PRES   REMARKS
EDENTON        PTSUNNY   77  60  56 SW12G17   29.94F
ELIZABETH CITY PTSUNNY   80  60  50 SW16G25   29.94F
KITTY HAWK     MOCLDY    78  61  56 SW7       29.94F
MANTEO         PTSUNNY   76  62  61 SW13      29.95F

$$

NCZ045>047-081-094-103-104-291900-
CENTRAL COAST

CITY           SKY/WX    TMP DP  RH WIND       PRES   REMARKS
FRISCO         PTSUNNY   74  67  78 SW8G16    29.99F
SWANQUARTER      N/A     77 N/A N/A S8        29.94S

$$

NCZ095-097-098-100-101-291900-
SOUTHERN COAST

CITY           SKY/WX    TMP DP  RH WIND       PRES   REMARKS
BEAUFORT       PTSUNNY   75  66  73 SW15      29.99F
CEDAR ISLAND     N/A     79 N/A N/A SW9G17    30.00F
JACKSONVILLE   PTSUNNY   79  59  50 W13       29.97F
PINEY ISLAND   MOCLDY    81  63  54 SW12      29.97F
WILMINGTON     PTSUNNY   81  58  45 SW15      29.99F


$$

NCZ011>013-027>030-043-044-078>080-089-090>093-098-291900-
COASTAL PLAIN

CITY           SKY/WX    TMP DP  RH WIND       PRES   REMARKS
AHOSKIE        NOT AVBL
CLINTON        MOSUNNY   80  60  51 W10G16    29.97F
ELIZABETHTOWN  MOSUNNY   78  60  52 SW8       29.99F
GOLDSBORO      PTSUNNY   79  61  53 W15G22    29.94F
GREENVILLE     PTSUNNY   79  59  50 W12G17    29.97F
HAVELOCK       PTSUNNY   80  60  50 SW18G25   29.98F
KENANSVILLE    PTSUNNY   77  58  51 SW10G21   29.98F
KINSTON        PTSUNNY   79  59  50 SW13G20   29.96F
NEW BERN       PTSUNNY   81  61  50 SW12      29.98F
RICHLANDS      MOSUNNY   79  57  47 W12G17    29.98F
ROCKY MOUNT    PTSUNNY   76  58  53 SW10G23   29.95F
WASHINGTON     PTSUNNY   78  60  55 W9        29.96F
WHITEVILLE     PTSUNNY   80  61  52 SW13G20   29.98F

$$

AMZ130-135-150-152-154-156-158-170-250-252-270-ANZ085-086-088-633-658-670-291900-
MARINE OBSERVATIONS

STATION/POSITION TIME  TEMP    WIND        PRES    WAVE   SWELL
                       AIR SEA DIR/SP/G            HT/PER HT/PER
                 (UTC) (F)     (DEG/KT/KT) (MB)    (FT/S) (FT/S)
CHESAPEAKE LIGHT 1700   68     190/ 17/ 17 1014.0
64 E VA BEACH    1800   69 67  220/ 14/ 14 1013.6    3/ 5
DUCK             1800   74 68  220/  9/ 12 1013.2
2 E DUCK         NOT AVBL
10 NE DUCK       1800      68                N/A     2/ 5
OREGON INLET     1800   68 67  190/ 14/ 16 1014.5
13E OREGON INLT  1800      71                N/A     3/ 6
HATTERAS CG      1800   74 71  220/ 10/ 13 1015.9
DIAMOND BUOY     1800   76     240/ 19/ 21 1015.5    4/ 5
17 S OCRACOKE    1700          VRB 17/ 19  1016.7
CAPE LOOKOUT     1700   74     220/ 12/ 15 1016.6
BEAUFORT LAB     1800   75 70  220/  7/ 12 1015.0
30 SE NEW RIVER  1700   74 75  250/ 16/ 17 1015.9
5 SE WRIGHTSVLE  1800   70 71  220/ 12/ 16   N/A
225 S CAPE HAT   1715   77 77  210/  4/  4 1019.2    2/10   2/10
41 SE CHARLESTON 1800   74 76  250/ 12/ 14 1016.8    2/ 4   2/ 7

$$



USA.gov is the U.S. government's official web portal to all federal, state and local government web resources and services.